This demonstration page uses our WeatherBlox Daily Observations layout. Learn more.

Left ArrowRight Arrow

39.92423, -83.80882

Hourly Observations for February 1, 2022

Temp ( °F °C ) Dew Point ( °F °C ) Humidity (%) Winds ( mph kmh ) Pressure ( in mb ) Visibility ( mi km ) Precip ( " mm )
12:56 am 00:56 Clear 27 -2.8 21 -6.1 78 78 SE 7 11 30.21 1023 10 16 0.00 0.00
1:56 am 01:56 Partly Cloudy 27 -2.8 21 -6.1 78 78 SE 10 17 30.20 1023 10 16 0.00 0.00
2:56 am 02:56 Mostly Cloudy 28 -2.2 22 -5.6 78 78 SE 7 11 30.20 1023 10 16 0.00 0.00
3:56 am 03:56 Mostly Cloudy 29 -1.7 23 -5 78 78 SSE 9 15 30.19 1022 10 16 0.00 0.00
4:56 am 04:56 Clear 27 -2.8 22 -5.6 81 81 SE 8 13 30.19 1023 10 16 0.00 0.00
5:56 am 05:56 Clear 29 -1.7 23 -5 78 78 SSE 9 15 30.19 1023 10 16 0.00 0.00
6:56 am 06:56 Clear 26 -3.3 22 -5.6 84 84 SE 9 15 30.20 1023 10 16 0.00 0.00
7:56 am 07:56 Sunny 27 -2.8 23 -5 85 85 SSE 7 11 30.20 1023 10 16 0.00 0.00
8:56 am 08:56 Sunny 33 0.6 24 -4.4 70 70 SSE 8 13 30.20 1023 10 16 0.00 0.00
9:56 am 09:56 Sunny 37 2.8 25 -3.9 62 62 S 10 17 30.19 1022 10 16 0.00 0.00
10:56 am 10:56 Sunny 42 5.6 27 -2.8 55 55 SSE 13 20 30.18 1022 10 16 0.00 0.00
11:56 am 11:56 Sunny 46 7.8 28 -2.2 50 50 S 10 17 30.16 1022 10 16 0.00 0.00
12:56 pm 12:56 Sunny 50 10 29 -1.7 44 44 S 9 15 30.14 1021 10 16 0.00 0.00
1:56 pm 13:56 Sunny 53 11.7 32 0 45 45 SSW 14 22 30.11 1020 10 16 0.00 0.00
2:56 pm 14:56 Sunny 52 11.1 33 0.6 49 49 S 12 19 30.09 1019 10 16 0.00 0.00
3:56 pm 15:56 Sunny 55 12.8 35 1.7 47 47 S 15 24 30.08 1019 10 16 0.00 0.00
4:56 pm 16:56 Sunny 53 11.7 35 1.7 51 51 S 12 19 30.07 1018 10 16 0.00 0.00
5:56 pm 17:56 Clear 51 10.6 34 1.1 52 52 S 13 20 30.08 1019 10 16 0.00 0.00
6:56 pm 18:56 Clear 49 9.4 33 0.6 55 55 SSW 8 13 30.10 1019 10 16 0.00 0.00
7:56 pm 19:56 Clear 46 7.8 32 0 58 58 S 6 9 30.13 1020 10 16 0.00 0.00
8:56 pm 20:56 Clear 46 7.8 32 0 58 58 S 9 15 30.12 1020 10 16 0.00 0.00
9:56 pm 21:56 Mostly Clear 46 7.8 30 -1.1 54 54 S 9 15 30.11 1020 10 16 0.00 0.00
10:56 pm 22:56 Partly Cloudy 46 7.8 29 -1.7 51 51 S 8 13 30.11 1020 10 16 0.00 0.00
11:56 pm 23:56 Mostly Clear 44 6.7 29 -1.7 55 55 S 6 9 30.09 1019 10 16 0.00 0.00

Powered by AerisWeather